#timestamp,LO_Frequency,Hit,StdDev 
1574784015.6,286046996.9,N
1574784035.5,286046996.9,N
1574784055.3,286046998.1,N
1574784075.1,286047000.2,N
1574784095.9,286047002.7,N
1574784115.7,286047000.1,N
1574784135.6,286047001.0,N
1574784155.4,286047000.3,N
1574784175.2,286046997.0,N
1574784195.1,286046999.6,N
1574784196.0,286046999.6,N
1574784215.8,286046999.3,N
1574784235.6,286046999.1,N
1574784255.5,286046998.9,N
1574784275.3,286046998.8,N
1574784295.1,286046998.9,N
1574784315.9,286046998.8,N
1574784335.7,286046998.9,N
1574784355.6,286046999.0,N
1574784375.4,286046999.9,N
1574784395.2,286047000.6,N
1574784415.1,286046998.2,N
1574784416.0,286046998.2,N
1574784435.8,286046998.2,N
1574784455.7,286046998.1,N
1574784475.5,286047000.1,N
1574784495.3,286047000.1,N
1574784515.2,286046998.5,N
1574784535.9,286047000.7,N
1574784555.7,286046998.4,N
1574784575.6,286046999.4,N
1574784595.4,286046996.5,N
1574784615.2,286046999.5,N
1574784635.1,286046997.4,N
1574784636.0,286046997.4,N
1574784655.8,286046997.1,N
1574784675.7,286046999.6,N
1574784695.5,286046998.4,N
1574784715.3,286046999.2,N
1574784735.2,286046994.9,Y
1574784755.0,286046996.5,P
1574784755.9,286046996.5,N
1574784775.8,286046996.6,P
1574784795.6,286046996.6,Y
1574784815.4,286046999.8,P
1574784835.3,286047000.2,N
1574784855.1,286047002.3,N
1574784875.8,286047000.0,N
1574784895.7,286046998.2,N
1574784915.5,286046999.3,N
1574784935.4,286046996.6,N
1574784955.2,286046999.6,N
1574784975.0,286046999.0,N
1574784975.9,286046999.0,N
1574784995.8,286047000.5,N
1574785015.6,286047000.4,N
1574785035.5,286047000.0,N
1574785055.3,286047001.0,N
1574785075.1,286046999.1,N
1574785095.9,286046998.3,N
1574785115.7,286047001.2,N
1574785135.6,286046999.1,N
1574785155.4,286046996.8,N
1574785175.2,286046999.1,N
1574785195.1,286046998.9,N
1574785196.0,286046998.9,N
1574785215.8,286046998.3,N
1574785235.6,286046996.7,N
1574785255.5,286046999.2,N
1574785275.3,286046999.2,N
1574785295.2,286046998.3,N
1574785315.9,286047000.8,N
1574785335.7,286047002.2,N
1574785355.6,286047001.6,N
1574785375.4,286047003.7,N
1574785395.2,286047003.0,N
1574785415.1,286047003.3,N
1574785416.0,286047003.3,N
1574785435.8,286047003.2,N
1574785455.7,286047006.0,Y
1574785475.5,286047003.7,P
1574785495.3,286047003.3,N
1574785515.2,286047003.6,N
1574785535.0,286047005.2,Y
1574785535.9,286047005.2,P
1574785555.7,286047002.7,N
1574785575.6,286046998.5,N
1574785595.4,286046997.0,N
1574785615.3,286046998.9,N
1574785635.1,286046998.8,N
1574785636.0,286046998.8,N
1574785655.8,286046999.1,N
1574785675.7,286046999.4,N
1574785695.5,286046998.7,N
1574785715.3,286046999.5,N
1574785735.2,286046999.4,N
1574785755.0,286046999.1,N
1574785755.9,286046999.1,N
1574785775.8,286046998.9,N
1574785795.6,286046999.0,N
1574785815.4,286046999.1,N
1574785835.3,286046999.5,N
1574785855.1,286046999.0,N
1574785875.8,286046996.6,N
1574785895.7,286046997.8,N
1574785915.5,286046996.8,N
1574785935.4,286046997.2,N
1574785955.2,286046997.6,N
1574785975.0,286046997.7,N
1574785975.9,286046997.7,N
1574785995.8,286046997.1,N
1574786015.6,286046996.8,N
1574786035.4,286046997.3,N
1574786055.3,286046997.6,N
1574786075.1,286046997.1,N
1574786095.9,286046996.2,Y
1574786115.7,286046995.6,P
1574786135.5,286046997.6,N
1574786155.4,286046997.3,N
1574786175.2,286046997.6,N
1574786195.0,286046995.2,Y
1574786196.0,286046995.2,P
1574786215.8,286047000.8,N
1574786235.6,286046999.4,N
1574786255.5,286047000.3,N
1574786275.3,286047001.1,N
1574786295.1,286047000.6,N
1574786315.9,286046999.8,N
1574786335.7,286046998.5,N
1574786355.5,286047000.6,N
1574786375.4,286047000.4,N
1574786395.2,286047001.7,N
1574786415.1,286047001.3,N
1574786416.0,286047001.3,N
1574786435.8,286047004.4,N
1574786455.6,286047003.9,N
1574786475.5,286047003.0,N
1574786495.3,286047003.3,N
1574786515.1,286047003.6,N
1574786535.9,286047004.3,N
1574786555.7,286047004.1,N
1574786575.6,286047004.9,N
1574786595.4,286047004.3,N
1574786615.2,286047003.9,N
1574786665.1,286047001.4,E
1574786675.0,286047002.8,N
1574786675.9,286047002.8,P
1574786695.8,286047002.4,P
1574786715.6,286047002.4,Y
1574786735.4,286046998.8,P
1574786755.3,286047001.2,N
1574786775.1,286047000.9,N
1574786795.9,286047000.4,N
1574786815.7,286046999.3,N
1574786835.5,286047000.0,N
1574786855.4,286047000.2,N
1574786875.2,286047002.5,N
1574786895.0,286047001.7,N
1574786895.9,286047001.7,N
1574786915.8,286047003.7,Y
1574786935.6,286047002.1,P
1574786955.5,286047002.8,P
1574786975.3,286046999.9,N
1574786995.1,286047001.6,N
1574787015.9,286047002.4,N
1574787035.7,286047000.1,N
1574787055.5,286047001.9,N
1574787075.4,286047001.8,N
1574787095.2,286047002.6,N
1574787115.0,286047001.6,N
1574787116.0,286047001.6,N
1574787135.8,286047001.5,N
1574787155.6,286047002.2,N
1574787175.5,286047000.6,N
1574787195.3,286047000.8,N
1574787215.1,286046998.2,N
1574787235.9,286047001.0,N
1574787255.7,286047001.1,N
1574787275.5,286046999.9,N
1574787295.4,286047000.3,N
1574787315.2,286047001.0,N
1574787335.1,286047000.1,N
1574787336.0,286047000.1,N
1574787355.8,286047000.1,N
1574787375.6,286047000.3,N
1574787395.5,286047000.0,N
1574787415.3,286047000.3,N
1574787435.1,286047001.9,N
1574787455.9,286047002.2,N
1574787475.7,286047001.5,N
1574787495.6,286047002.8,N
1574787515.4,286047001.7,N
1574787535.2,286047000.0,N
1574787555.1,286047000.0,N
1574787556.0,286047000.0,N
1574787575.8,286047002.1,N
1574787595.6,286047001.0,N
